Location: Marshall
(39.8477°N, 87.1868°W)
Time: 03:39:55
(UTC+00:00)

Envisat - Pass Details

Date: 16 May 2026
Orbit: 761 x 763 km, 98.4° (Epoch: 9 June)

Event Time Altitude Azimuth Distance (km) Brightness Sun altitude
Rises 09:56:35 0° 353° (N) 3,231 6.6 -6.9°
Reaches altitude 10° 10:00:00 10° 328° (NNW) 2,300 5.5 -6.4°
Maximum altitude 10:02:28 14° 299° (WNW) 2,041 4.9 -6.0°
Drops below altitude 10° 10:04:57 10° 269° (W) 2,293 4.9 -5.6°
Enters shadow 10:06:39 - 255° (WSW) 2,699 5.2 -5.3°
